Regional Weather Roundup
Issued by NWS Little Rock, AR

Home | Current Version | Previous Version | Text Only | Print | Product List | Glossary Off
Versions: 1 2 3 4 5 6 7 8 9 10 11 12 13 14 15 16 17 18 19 20 21 22 23 24 25 26 27 28 29 30 31 32 33 34 35 36 37 38 39 40 41 42 43 44 45 46 47 48 49 50

000
ASUS44 KLZK 300505
RWRLZK

WEATHER ROUNDUP FOR ARKANSAS
NATIONAL WEATHER SERVICE LITTLE ROCK AR
1100 PM CST THU JAN 29 2015

NOTE: "FAIR" INDICATES FEW OR NO CLOUDS BELOW 12,000 FEET WITH NO
SIGNIFICANT WEATHER AND/OR OBSTRUCTIONS TO VISIBILITY.

ARZ001-003-010-029-300600-
NORTHWEST ARKANSAS

CITY           SKY/WX    TMP DP  RH WIND       PRES   REMARKS
FAYETTEVILLE   PTCLDY    27  24  89 NW3       30.49R
FORT SMITH     PTCLDY    41  29  62 N6        30.50R
HARRISON       CLEAR     33  27  78 NW8       30.45S WCI  26
BENTONVILLE    CLEAR     36  25  64 N6        30.49R
ROGERS         CLEAR     33  26  75 NW5       30.49R WCI  29
SILOAM SPGS    CLEAR     30  21  69 NW3       30.51R
HIGHFILL       CLEAR     32  25  75 N7        30.48R WCI  26
$$

ARZ004-005-016-300600-
NORTH CENTRAL ARKANSAS

CITY           SKY/WX    TMP DP  RH WIND       PRES   REMARKS
BATESVILLE     CLEAR     37  27  65 W3        30.44R
FLIPPIN        CLEAR     37  25  60 NW3       30.45R
MTN HOME       CLEAR     34  27  75 NW3       30.44R
$$

ARZ040-041-300600-
WEST CENTRAL ARKANSAS

CITY           SKY/WX    TMP DP  RH WIND       PRES   REMARKS
MENA           MOCLDY    45  32  61 CALM      30.45R
MOUNT IDA      PTCLDY    37  30  75 CALM      30.43R
$$

ARZ009-017-025-026-028-300600-
NORTHEAST ARKANSAS

CITY           SKY/WX    TMP DP  RH WIND       PRES   REMARKS
CORNING        FAIR      39  28  65 NW13      30.43R
JONESBORO      CLEAR     34  29  82 CALM      30.42S
NEWPORT        CLEAR     37  29  73 NW6       30.45S
WALNUT RIDGE   CLEAR     36  25  64 W7        30.43R
BLYTHEVILLE    CLOUDY    40  33  76 N12       30.41S
$$

ARZ022-023-033-042-044-300600-
CENTRAL ARKANSAS

CITY           SKY/WX    TMP DP  RH WIND       PRES   REMARKS
LITTLE ROCK    PTCLDY    38  28  67 N7        30.46R
N LITTLE ROCK  PTCLDY    38  32  77 NW5       30.46R
JACKSONVILLE   CLEAR     32  27  80 W1        30.45S
SEARCY         CLEAR     33  27  78 CALM      30.47R
HOT SPRINGS    PTCLDY    43  29  57 VRB5      30.46R
RUSSELLVILLE   PTCLDY    32  28  85 CALM      30.47R
CLINTON        FAIR      34  28  80 CALM      30.46S
$$

ARZ036-300600-
EAST ARKANSAS

CITY           SKY/WX    TMP DP  RH WIND       PRES   REMARKS
WEST MEMPHIS   CLOUDY    42  32  67 N8        30.42R
$$

ARZ050-053-066-070-073-300600-
SOUTHWEST ARKANSAS

CITY           SKY/WX    TMP DP  RH WIND       PRES   REMARKS
ARKADELPHIA    FAIR      43  31  63 NE5       30.47R
CAMDEN         CLEAR     45  32  61 MISG      30.46R
TEXARKANA      CLOUDY    46  33  60 NE10      30.45R
EL DORADO      PTCLDY    47  34  60 N10       30.44R
DE QUEEN       PTCLDY    42  31  64 CALM      30.44R
$$

ARZ056-057-069-300600-
SOUTHEAST ARKANSAS

CITY           SKY/WX    TMP DP  RH WIND       PRES   REMARKS
PINE BLUFF     CLEAR     41  30  65 N8        30.46R
STUTTGART      CLEAR     39  28  65 N7        30.46R
MONTICELLO     MOCLDY    45  33  63 N5        30.44R

$$





USA.gov is the U.S. government's official web portal to all federal, state and local government web resources and services.